Time,TemperatureF,DewpointF,PressureIn,WindDirection,WindDirectionDegrees,WindSpeedMPH,WindSpeedGustMPH,Humidity,HourlyPrecipIn,Conditions,Clouds,dailyrainin,SoftwareType,DateUTC
2013-05-18 00:02:00,59.6,41.4,30.08,ESE,120,1.0,4.0,51,0.00,,,0.00,Wunderground v.1.15,2013-05-18 04:02:00,
2013-05-18 00:03:00,59.6,41.4,30.08,West,281,1.0,4.0,51,0.00,,,0.00,Wunderground v.1.15,2013-05-18 04:03:00,
2013-05-18 00:09:00,59.5,41.9,30.08,SE,140,1.0,2.0,52,0.00,,,0.00,Wunderground v.1.15,2013-05-18 04:09:00,
2013-05-18 00:10:00,59.5,41.9,30.08,SE,131,1.0,2.0,52,0.00,,,0.00,Wunderground v.1.15,2013-05-18 04:10:00,
2013-05-18 00:17:00,59.3,41.7,30.08,NNE,23,0.0,2.0,52,0.00,,,0.00,Wunderground v.1.15,2013-05-18 04:17:00,
2013-05-18 00:22:00,59.2,42.1,30.08,ESE,103,1.0,2.0,53,0.00,,,0.00,Wunderground v.1.15,2013-05-18 04:22:00,
2013-05-18 00:28:00,59.0,42.4,30.08,North,356,0.0,2.0,54,0.00,,,0.00,Wunderground v.1.15,2013-05-18 04:28:00,
2013-05-18 00:33:00,58.9,42.3,30.08,ENE,64,1.0,2.0,54,0.00,,,0.00,Wunderground v.1.15,2013-05-18 04:33:00,
2013-05-18 00:38:00,58.8,42.2,30.08,ENE,69,0.0,1.0,54,0.00,,,0.00,Wunderground v.1.15,2013-05-18 04:38:00,
2013-05-18 00:44:00,58.5,41.9,30.08,ESE,111,0.0,1.0,54,0.00,,,0.00,Wunderground v.1.15,2013-05-18 04:44:00,
2013-05-18 00:47:00,58.5,41.9,30.08,ESE,105,0.0,1.0,54,0.00,,,0.00,Wunderground v.1.15,2013-05-18 04:47:00,
2013-05-18 00:52:00,58.3,42.2,30.08,SE,145,0.0,0.0,55,0.00,,,0.00,Wunderground v.1.15,2013-05-18 04:52:00,
2013-05-18 01:02:00,57.7,42.6,30.08,WNW,290,0.0,1.0,57,0.00,,,0.00,Wunderground v.1.15,2013-05-18 05:02:00,
2013-05-18 01:07:00,57.2,42.5,30.08,WNW,294,0.0,0.0,58,0.00,,,0.00,Wunderground v.1.15,2013-05-18 05:07:00,
2013-05-18 01:13:00,57.1,42.5,30.09,WNW,290,0.0,1.0,58,0.00,,,0.00,Wunderground v.1.15,2013-05-18 05:13:00,
2013-05-18 01:19:00,56.8,43.1,30.08,West,271,0.0,0.0,60,0.00,,,0.00,Wunderground v.1.15,2013-05-18 05:19:00,
2013-05-18 01:24:00,56.3,42.6,30.08,SSE,148,0.0,0.0,60,0.00,,,0.00,Wunderground v.1.15,2013-05-18 05:24:00,
2013-05-18 01:30:00,56.4,42.7,30.08,SE,134,1.0,1.0,60,0.00,,,0.00,Wunderground v.1.15,2013-05-18 05:30:00,
2013-05-18 01:37:00,56.5,42.3,30.08,ESE,117,0.0,0.0,59,0.00,,,0.00,Wunderground v.1.15,2013-05-18 05:37:00,
2013-05-18 01:43:00,56.7,42.1,30.08,NNE,23,0.0,2.0,58,0.00,,,0.00,Wunderground v.1.15,2013-05-18 05:43:00,
2013-05-18 01:49:00,56.9,42.3,30.08,SE,129,0.0,0.0,58,0.00,,,0.00,Wunderground v.1.15,2013-05-18 05:49:00,
2013-05-18 01:54:00,57.0,42.4,30.08,SSW,200,0.0,1.0,58,0.00,,,0.00,Wunderground v.1.15,2013-05-18 05:54:00,
2013-05-18 02:00:00,56.9,42.7,30.08,SSW,205,0.0,0.0,59,0.00,,,0.00,Wunderground v.1.15,2013-05-18 06:00:00,
2013-05-18 02:07:00,56.6,42.9,30.07,SE,143,0.0,0.0,60,0.00,,,0.00,Wunderground v.1.15,2013-05-18 06:07:00,
2013-05-18 02:14:00,56.7,43.4,30.07,ESE,104,0.0,0.0,61,0.00,,,0.00,Wunderground v.1.15,2013-05-18 06:14:00,
2013-05-18 02:20:00,56.8,43.9,30.07,ESE,117,0.0,0.0,62,0.00,,,0.00,Wunderground v.1.15,2013-05-18 06:20:00,
2013-05-18 02:27:00,57.0,44.1,30.06,ESE,118,0.0,0.0,62,0.00,,,0.00,Wunderground v.1.15,2013-05-18 06:27:00,
2013-05-18 02:32:00,57.2,44.7,30.06,ESE,108,0.0,1.0,63,0.00,,,0.00,Wunderground v.1.15,2013-05-18 06:32:00,
2013-05-18 02:38:00,57.5,45.0,30.06,SE,127,1.0,1.0,63,0.00,,,0.00,Wunderground v.1.15,2013-05-18 06:38:00,
2013-05-18 02:44:00,57.5,45.0,30.06,SE,138,0.0,1.0,63,0.00,,,0.00,Wunderground v.1.15,2013-05-18 06:44:00,
2013-05-18 02:49:00,57.5,45.0,30.06,West,277,0.0,1.0,63,0.00,,,0.00,Wunderground v.1.15,2013-05-18 06:49:00,
2013-05-18 02:55:00,57.4,45.3,30.06,West,278,0.0,1.0,64,0.00,,,0.00,Wunderground v.1.15,2013-05-18 06:55:00,
2013-05-18 03:01:00,57.2,45.1,30.06,SSW,207,0.0,0.0,64,0.00,,,0.00,Wunderground v.1.15,2013-05-18 07:01:00,
2013-05-18 03:07:00,57.3,45.2,30.06,SE,133,0.0,0.0,64,0.00,,,0.00,Wunderground v.1.15,2013-05-18 07:07:00,
2013-05-18 03:12:00,57.2,45.5,30.06,WSW,239,0.0,0.0,65,0.00,,,0.00,Wunderground v.1.15,2013-05-18 07:12:00,
2013-05-18 03:18:00,56.7,45.1,30.06,WSW,239,0.0,0.0,65,0.00,,,0.00,Wunderground v.1.15,2013-05-18 07:18:00,
2013-05-18 03:25:00,56.4,45.6,30.05,SE,124,0.0,1.0,67,0.00,,,0.00,Wunderground v.1.15,2013-05-18 07:25:00,
2013-05-18 03:30:00,56.6,45.4,30.05,SE,126,0.0,1.0,66,0.00,,,0.00,Wunderground v.1.15,2013-05-18 07:30:00,
2013-05-18 03:38:00,57.2,45.5,30.05,ESE,113,1.0,1.0,65,0.00,,,0.00,Wunderground v.1.15,2013-05-18 07:38:00,
2013-05-18 03:44:00,57.5,45.4,30.05,SE,132,1.0,2.0,64,0.00,,,0.00,Wunderground v.1.15,2013-05-18 07:44:00,
2013-05-18 03:49:00,57.5,45.4,30.05,NW,316,1.0,1.0,64,0.00,,,0.00,Wunderground v.1.15,2013-05-18 07:49:00,
2013-05-18 03:54:00,57.3,45.2,30.05,ESE,115,0.0,1.0,64,0.00,,,0.00,Wunderground v.1.15,2013-05-18 07:54:00,
2013-05-18 04:00:00,57.3,45.2,30.05,South,176,0.0,1.0,64,0.00,,,0.00,Wunderground v.1.15,2013-05-18 08:00:00,
2013-05-18 04:07:00,56.9,45.3,30.05,South,176,0.0,1.0,65,0.00,,,0.00,Wunderground v.1.15,2013-05-18 08:07:00,
2013-05-18 04:13:00,56.7,45.5,30.05,SE,135,0.0,1.0,66,0.00,,,0.00,Wunderground v.1.15,2013-05-18 08:13:00,
2013-05-18 04:18:00,56.8,45.6,30.05,SE,131,0.0,0.0,66,0.00,,,0.00,Wunderground v.1.15,2013-05-18 08:18:00,
2013-05-18 04:23:00,56.7,45.5,30.06,SE,140,0.0,2.0,66,0.00,,,0.00,Wunderground v.1.15,2013-05-18 08:23:00,
2013-05-18 04:29:00,56.3,45.5,30.06,SSW,207,0.0,2.0,67,0.00,,,0.00,Wunderground v.1.15,2013-05-18 08:29:00,
2013-05-18 04:35:00,56.1,45.7,30.06,SW,231,0.0,2.0,68,0.00,,,0.00,Wunderground v.1.15,2013-05-18 08:35:00,
2013-05-18 04:40:00,55.9,45.5,30.06,SW,232,0.0,1.0,68,0.00,,,0.00,Wunderground v.1.15,2013-05-18 08:40:00,
2013-05-18 04:46:00,55.5,45.5,30.06,SSW,207,0.0,1.0,69,0.00,,,0.00,Wunderground v.1.15,2013-05-18 08:46:00,
2013-05-18 04:51:00,55.6,45.6,30.06,SSW,197,0.0,0.0,69,0.00,,,0.00,Wunderground v.1.15,2013-05-18 08:51:00,
2013-05-18 04:58:00,55.1,45.9,30.06,SSW,197,0.0,0.0,71,0.00,,,0.00,Wunderground v.1.15,2013-05-18 08:58:00,
2013-05-18 05:04:00,55.0,45.8,30.06,ESE,109,0.0,2.0,71,0.00,,,0.00,Wunderground v.1.15,2013-05-18 09:04:00,
2013-05-18 05:10:00,55.3,45.7,30.06,SE,132,1.0,1.0,70,0.00,,,0.00,Wunderground v.1.15,2013-05-18 09:10:00,
2013-05-18 05:17:00,55.4,45.8,30.06,SE,145,1.0,2.0,70,0.00,,,0.00,Wunderground v.1.15,2013-05-18 09:17:00,
2013-05-18 05:23:00,55.6,45.6,30.05,SE,125,1.0,2.0,69,0.00,,,0.00,Wunderground v.1.15,2013-05-18 09:23:00,
2013-05-18 05:28:00,55.8,45.8,30.06,SSW,207,1.0,1.0,69,0.00,,,0.00,Wunderground v.1.15,2013-05-18 09:28:00,
2013-05-18 05:34:00,56.1,45.7,30.06,SE,126,1.0,2.0,68,0.00,,,0.00,Wunderground v.1.15,2013-05-18 09:34:00,
2013-05-18 05:40:00,56.3,45.5,30.06,ESE,117,1.0,1.0,67,0.00,,,0.00,Wunderground v.1.15,2013-05-18 09:40:00,
2013-05-18 05:45:00,56.4,45.6,30.06,SE,127,1.0,2.0,67,0.00,,,0.00,Wunderground v.1.15,2013-05-18 09:45:00,
2013-05-18 05:50:00,56.6,45.8,30.06,SSE,149,1.0,1.0,67,0.00,,,0.00,Wunderground v.1.15,2013-05-18 09:50:00,
2013-05-18 05:58:00,56.6,45.8,30.06,SE,131,1.0,1.0,67,0.00,,,0.00,Wunderground v.1.15,2013-05-18 09:58:00,
2013-05-18 06:04:00,56.2,45.8,30.06,SE,140,0.0,1.0,68,0.00,,,0.00,Wunderground v.1.15,2013-05-18 10:04:00,
2013-05-18 06:09:00,56.2,45.8,30.06,ESE,109,0.0,2.0,68,0.00,,,0.00,Wunderground v.1.15,2013-05-18 10:09:00,
2013-05-18 06:14:00,56.3,45.9,30.06,SW,232,1.0,2.0,68,0.00,,,0.00,Wunderground v.1.15,2013-05-18 10:14:00,
2013-05-18 06:19:00,56.1,46.1,30.06,SE,129,1.0,1.0,69,0.00,,,0.00,Wunderground v.1.15,2013-05-18 10:19:00,
2013-05-18 06:27:00,55.1,46.2,30.07,WSW,251,0.0,1.0,72,0.00,,,0.00,Wunderground v.1.15,2013-05-18 10:27:00,
2013-05-18 06:32:00,54.3,45.8,30.07,WSW,251,0.0,0.0,73,0.00,,,0.00,Wunderground v.1.15,2013-05-18 10:32:00,
2013-05-18 06:38:00,54.0,45.9,30.07,WSW,251,0.0,0.0,74,0.00,,,0.00,Wunderground v.1.15,2013-05-18 10:38:00,
2013-05-18 06:43:00,53.9,46.2,30.07,WSW,251,0.0,0.0,75,0.00,,,0.00,Wunderground v.1.15,2013-05-18 10:43:00,
2013-05-18 06:48:00,53.7,46.3,30.07,WSW,250,0.0,0.0,76,0.00,,,0.00,Wunderground v.1.15,2013-05-18 10:48:00,
2013-05-18 06:54:00,53.7,46.7,30.07,SW,222,0.0,0.0,77,0.00,,,0.00,Wunderground v.1.15,2013-05-18 10:54:00,
2013-05-18 07:00:00,53.7,46.7,30.08,SW,222,0.0,0.0,77,0.00,,,0.00,Wunderground v.1.15,2013-05-18 11:00:00,
2013-05-18 07:05:00,53.8,46.8,30.08,SW,222,0.0,0.0,77,0.00,,,0.00,Wunderground v.1.15,2013-05-18 11:05:00,
2013-05-18 07:11:00,54.5,47.1,30.08,SW,224,0.0,0.0,76,0.00,,,0.00,Wunderground v.1.15,2013-05-18 11:11:00,
2013-05-18 07:17:00,55.1,47.7,30.08,SSE,154,0.0,0.0,76,0.00,,,0.00,Wunderground v.1.15,2013-05-18 11:17:00,
2013-05-18 07:22:00,55.7,47.9,30.08,SSE,153,0.0,0.0,75,0.00,,,0.00,Wunderground v.1.15,2013-05-18 11:22:00,
2013-05-18 07:27:00,56.5,47.9,30.08,SE,145,0.0,0.0,73,0.00,,,0.00,Wunderground v.1.15,2013-05-18 11:27:00,
2013-05-18 07:33:00,57.6,47.9,30.08,ESE,104,0.0,3.0,70,0.00,,,0.00,Wunderground v.1.15,2013-05-18 11:33:00,
2013-05-18 07:38:00,58.4,48.3,30.09,ESE,107,1.0,1.0,69,0.00,,,0.00,Wunderground v.1.15,2013-05-18 11:38:00,
2013-05-18 07:45:00,59.6,48.2,30.09,South,184,1.0,1.0,66,0.00,,,0.00,Wunderground v.1.15,2013-05-18 11:45:00,
2013-05-18 07:51:00,60.3,48.9,30.09,WSW,239,1.0,2.0,66,0.00,,,0.00,Wunderground v.1.15,2013-05-18 11:51:00,
2013-05-18 07:57:00,60.7,49.3,30.09,ESE,123,0.0,0.0,66,0.00,,,0.00,Wunderground v.1.15,2013-05-18 11:57:00,
2013-05-18 08:03:00,61.1,49.2,30.09,ESE,117,0.0,1.0,65,0.00,,,0.00,Wunderground v.1.15,2013-05-18 12:03:00,
2013-05-18 08:09:00,61.3,49.4,30.10,ESE,102,0.0,2.0,65,0.00,,,0.00,Wunderground v.1.15,2013-05-18 12:09:00,
2013-05-18 08:14:00,61.5,49.2,30.10,SE,135,1.0,4.0,64,0.00,,,0.00,Wunderground v.1.15,2013-05-18 12:14:00,
2013-05-18 08:20:00,61.7,49.8,30.10,East,90,1.0,1.0,65,0.00,,,0.00,Wunderground v.1.15,2013-05-18 12:20:00,
2013-05-18 08:27:00,62.1,49.8,30.09,SE,135,1.0,2.0,64,0.00,,,0.00,Wunderground v.1.15,2013-05-18 12:27:00,
2013-05-18 08:32:00,62.3,50.0,30.09,ESE,121,1.0,4.0,64,0.00,,,0.00,Wunderground v.1.15,2013-05-18 12:32:00,
2013-05-18 08:37:00,62.9,51.0,30.09,SE,129,1.0,1.0,65,0.00,,,0.00,Wunderground v.1.15,2013-05-18 12:37:00,
2013-05-18 08:42:00,63.7,50.4,30.09,SE,128,0.0,3.0,62,0.00,,,0.00,Wunderground v.1.15,2013-05-18 12:42:00,
2013-05-18 08:48:00,63.7,50.4,30.09,SSW,195,1.0,2.0,62,0.00,,,0.00,Wunderground v.1.15,2013-05-18 12:48:00,
2013-05-18 08:54:00,64.6,50.8,30.08,ESE,103,1.0,5.0,61,0.00,,,0.00,Wunderground v.1.15,2013-05-18 12:54:00,
2013-05-18 08:59:00,65.1,50.9,30.08,SE,135,2.0,4.0,60,0.00,,,0.00,Wunderground v.1.15,2013-05-18 12:59:00,
2013-05-18 09:04:00,65.5,52.1,30.08,East,86,2.0,4.0,62,0.00,,,0.00,Wunderground v.1.15,2013-05-18 13:04:00,
2013-05-18 09:09:00,66.4,52.5,30.08,SE,134,1.0,5.0,61,0.00,,,0.00,Wunderground v.1.15,2013-05-18 13:09:00,
2013-05-18 09:14:00,67.1,53.2,30.08,East,101,1.0,5.0,61,0.00,,,0.00,Wunderground v.1.15,2013-05-18 13:14:00,
2013-05-18 09:19:00,67.4,52.1,30.09,East,96,1.0,4.0,58,0.00,,,0.00,Wunderground v.1.15,2013-05-18 13:19:00,
2013-05-18 09:24:00,67.4,52.6,30.08,SE,142,2.0,4.0,59,0.00,,,0.00,Wunderground v.1.15,2013-05-18 13:24:00,
2013-05-18 09:29:00,68.1,52.8,30.08,ESE,108,2.0,2.0,58,0.00,,,0.00,Wunderground v.1.15,2013-05-18 13:29:00,
2013-05-18 09:35:00,68.4,53.5,30.08,ESE,110,2.0,4.0,59,0.00,,,0.00,Wunderground v.1.15,2013-05-18 13:35:00,
2013-05-18 09:42:00,69.0,54.1,30.08,NW,318,1.0,2.0,59,0.00,,,0.00,Wunderground v.1.15,2013-05-18 13:42:00,
2013-05-18 09:48:00,69.5,53.6,30.08,SSE,153,0.0,2.0,57,0.00,,,0.00,Wunderground v.1.15,2013-05-18 13:48:00,
2013-05-18 09:53:00,70.0,54.1,30.08,ESE,102,1.0,3.0,57,0.00,,,0.00,Wunderground v.1.15,2013-05-18 13:53:00,
2013-05-18 09:58:00,69.5,53.6,30.08,ESE,102,2.0,2.0,57,0.00,,,0.00,Wunderground v.1.15,2013-05-18 13:58:00,
2013-05-18 10:04:00,69.6,53.2,30.08,SE,136,3.0,5.0,56,0.00,,,0.00,Wunderground v.1.15,2013-05-18 14:04:00,
2013-05-18 10:09:00,69.8,52.9,30.07,NNW,347,3.0,9.0,55,0.00,,,0.00,Wunderground v.1.15,2013-05-18 14:09:00,
2013-05-18 10:16:00,70.6,53.6,30.07,South,171,2.0,9.0,55,0.00,,,0.00,Wunderground v.1.15,2013-05-18 14:16:00,
2013-05-18 10:22:00,71.6,54.6,30.07,SSW,195,1.0,3.0,55,0.00,,,0.00,Wunderground v.1.15,2013-05-18 14:22:00,
2013-05-18 10:27:00,72.3,55.2,30.07,SSE,153,1.0,3.0,55,0.00,,,0.00,Wunderground v.1.15,2013-05-18 14:27:00,
2013-05-18 10:34:00,72.5,54.4,30.07,ESE,117,2.0,3.0,53,0.00,,,0.00,Wunderground v.1.15,2013-05-18 14:34:00,
2013-05-18 10:41:00,73.1,54.4,30.07,SE,126,2.0,2.0,52,0.00,,,0.00,Wunderground v.1.15,2013-05-18 14:41:00,
2013-05-18 10:47:00,73.4,55.2,30.06,East,80,2.0,4.0,53,0.00,,,0.00,Wunderground v.1.15,2013-05-18 14:47:00,
2013-05-18 10:52:00,74.1,54.8,30.06,SSE,160,2.0,5.0,51,0.00,,,0.00,Wunderground v.1.15,2013-05-18 14:52:00,
2013-05-18 10:58:00,74.6,54.2,30.06,East,90,2.0,2.0,49,0.00,,,0.00,Wunderground v.1.15,2013-05-18 14:58:00,
2013-05-18 11:04:00,74.9,54.4,30.06,NE,51,2.0,4.0,49,0.00,,,0.00,Wunderground v.1.15,2013-05-18 15:04:00,
2013-05-18 11:09:00,74.7,54.8,30.05,SSE,166,3.0,3.0,50,0.00,,,0.00,Wunderground v.1.15,2013-05-18 15:09:00,
2013-05-18 11:16:00,75.6,54.5,30.05,ESE,108,2.0,3.0,48,0.00,,,0.00,Wunderground v.1.15,2013-05-18 15:16:00,
2013-05-18 11:25:00,76.6,54.9,30.05,ESE,118,1.0,3.0,47,0.00,,,0.00,Wunderground v.1.15,2013-05-18 15:25:00,
2013-05-18 11:30:00,76.7,55.5,30.05,East,98,1.0,1.0,48,0.00,,,0.00,Wunderground v.1.15,2013-05-18 15:30:00,
2013-05-18 11:35:00,77.6,54.0,30.05,ESE,122,1.0,1.0,44,0.00,,,0.00,Wunderground v.1.15,2013-05-18 15:35:00,
2013-05-18 11:41:00,78.2,52.6,30.05,South,171,1.0,3.0,41,0.00,,,0.00,Wunderground v.1.15,2013-05-18 15:41:00,
2013-05-18 11:47:00,78.9,54.5,30.05,SE,135,1.0,3.0,43,0.00,,,0.00,Wunderground v.1.15,2013-05-18 15:47:00,
2013-05-18 11:52:00,78.8,53.1,30.05,East,97,1.0,3.0,41,0.00,,,0.00,Wunderground v.1.15,2013-05-18 15:52:00,
2013-05-18 11:57:00,78.8,53.1,30.05,SE,124,2.0,2.0,41,0.00,,,0.00,Wunderground v.1.15,2013-05-18 15:57:00,
2013-05-18 12:04:00,78.8,49.6,30.05,ESE,111,2.0,3.0,36,0.00,,,0.00,Wunderground v.1.15,2013-05-18 16:04:00,
2013-05-18 12:09:00,79.0,50.5,30.05,SE,128,2.0,2.0,37,0.00,,,0.00,Wunderground v.1.15,2013-05-18 16:09:00,
2013-05-18 12:14:00,79.5,50.9,30.05,East,92,2.0,3.0,37,0.00,,,0.00,Wunderground v.1.15,2013-05-18 16:14:00,
2013-05-18 12:19:00,80.1,49.2,30.05,WSW,242,2.0,3.0,34,0.00,,,0.00,Wunderground v.1.15,2013-05-18 16:19:00,
2013-05-18 12:27:00,80.8,49.0,30.05,NE,48,2.0,3.0,33,0.00,,,0.00,Wunderground v.1.15,2013-05-18 16:27:00,
2013-05-18 12:33:00,81.5,52.0,30.05,ESE,107,1.0,2.0,36,0.00,,,0.00,Wunderground v.1.15,2013-05-18 16:33:00,
2013-05-18 12:39:00,80.8,48.2,30.05,ESE,115,2.0,3.0,32,0.00,,,0.00,Wunderground v.1.15,2013-05-18 16:39:00,
2013-05-18 12:45:00,81.1,46.7,30.05,East,101,3.0,4.0,30,0.00,,,0.00,Wunderground v.1.15,2013-05-18 16:45:00,
2013-05-18 12:51:00,81.5,49.6,30.05,East,84,2.0,4.0,33,0.00,,,0.00,Wunderground v.1.15,2013-05-18 16:51:00,
2013-05-18 12:58:00,81.2,50.2,30.05,SE,131,2.0,2.0,34,0.00,,,0.00,Wunderground v.1.15,2013-05-18 16:58:00,
2013-05-18 13:03:00,82.7,49.8,30.05,ESE,104,2.0,3.0,32,0.00,,,0.00,Wunderground v.1.15,2013-05-18 17:03:00,
2013-05-18 13:08:00,83.3,52.8,30.04,North,355,2.0,2.0,35,0.00,,,0.00,Wunderground v.1.15,2013-05-18 17:08:00,
2013-05-18 13:14:00,83.0,51.7,30.04,ESE,105,1.0,4.0,34,0.00,,,0.00,Wunderground v.1.15,2013-05-18 17:14:00,
2013-05-18 13:20:00,83.4,52.9,30.04,ESE,114,1.0,3.0,35,0.00,,,0.00,Wunderground v.1.15,2013-05-18 17:20:00,
2013-05-18 13:25:00,83.8,55.5,30.04,ENE,59,1.0,3.0,38,0.00,,,0.00,Wunderground v.1.15,2013-05-18 17:25:00,
2013-05-18 13:30:00,83.5,52.2,30.04,ESE,121,1.0,3.0,34,0.00,,,0.00,Wunderground v.1.15,2013-05-18 17:30:00,
2013-05-18 13:35:00,82.6,52.9,30.04,ESE,114,2.0,8.0,36,0.00,,,0.00,Wunderground v.1.15,2013-05-18 17:35:00,
2013-05-18 13:40:00,82.7,53.0,30.03,ESE,115,3.0,3.0,36,0.00,,,0.00,Wunderground v.1.15,2013-05-18 17:40:00,
2013-05-18 13:47:00,82.7,53.0,30.03,NW,325,2.0,3.0,36,0.00,,,0.00,Wunderground v.1.15,2013-05-18 17:47:00,
2013-05-18 13:53:00,82.7,52.3,30.03,East,94,2.0,5.0,35,0.00,,,0.00,Wunderground v.1.15,2013-05-18 17:53:00,
2013-05-18 13:58:00,82.3,51.9,30.03,NNW,339,2.0,2.0,35,0.00,,,0.00,Wunderground v.1.15,2013-05-18 17:58:00,
2013-05-18 14:03:00,82.5,52.1,30.02,SE,124,2.0,4.0,35,0.00,,,0.00,Wunderground v.1.15,2013-05-18 18:03:00,
2013-05-18 14:08:00,83.0,50.9,30.02,East,86,2.0,4.0,33,0.00,,,0.00,Wunderground v.1.15,2013-05-18 18:08:00,
2013-05-18 14:14:00,82.4,52.0,30.02,ENE,78,3.0,6.0,35,0.00,,,0.00,Wunderground v.1.15,2013-05-18 18:14:00,
2013-05-18 14:20:00,82.7,53.0,30.02,ESE,122,2.0,3.0,36,0.00,,,0.00,Wunderground v.1.15,2013-05-18 18:20:00,
2013-05-18 14:27:00,84.2,52.8,30.01,WNW,290,1.0,1.0,34,0.00,,,0.00,Wunderground v.1.15,2013-05-18 18:27:00,
2013-05-18 14:32:00,84.8,50.8,30.01,SE,127,1.0,2.0,31,0.00,,,0.00,Wunderground v.1.15,2013-05-18 18:32:00,
2013-05-18 14:38:00,84.6,52.3,30.01,SE,131,2.0,4.0,33,0.00,,,0.00,Wunderground v.1.15,2013-05-18 18:38:00,
2013-05-18 14:43:00,84.6,52.3,30.01,North,356,2.0,6.0,33,0.00,,,0.00,Wunderground v.1.15,2013-05-18 18:43:00,
2013-05-18 14:48:00,84.3,50.4,30.01,SE,125,3.0,8.0,31,0.00,,,0.00,Wunderground v.1.15,2013-05-18 18:48:00,
2013-05-18 14:54:00,84.0,50.1,30.00,NW,309,3.0,8.0,31,0.00,,,0.00,Wunderground v.1.15,2013-05-18 18:54:00,
2013-05-18 14:59:00,83.3,51.2,30.00,WNW,295,3.0,3.0,33,0.00,,,0.00,Wunderground v.1.15,2013-05-18 18:59:00,
2013-05-18 15:07:00,84.5,50.5,30.00,East,82,2.0,2.0,31,0.00,,,0.00,Wunderground v.1.15,2013-05-18 19:07:00,
2013-05-18 15:12:00,84.0,49.2,30.00,SSE,163,2.0,3.0,30,0.00,,,0.00,Wunderground v.1.15,2013-05-18 19:12:00,
2013-05-18 15:17:00,84.3,49.5,30.00,NW,313,2.0,2.0,30,0.00,,,0.00,Wunderground v.1.15,2013-05-18 19:17:00,
2013-05-18 15:22:00,84.7,52.4,30.00,SE,146,2.0,2.0,33,0.00,,,0.00,Wunderground v.1.15,2013-05-18 19:22:00,
2013-05-18 15:28:00,85.8,52.5,29.99,NW,304,1.0,2.0,32,0.00,,,0.00,Wunderground v.1.15,2013-05-18 19:28:00,
2013-05-18 15:33:00,85.9,55.1,29.99,East,101,1.0,4.0,35,0.00,,,0.00,Wunderground v.1.15,2013-05-18 19:33:00,
2013-05-18 15:39:00,84.8,49.0,29.99,ESE,118,2.0,2.0,29,0.00,,,0.00,Wunderground v.1.15,2013-05-18 19:39:00,
2013-05-18 15:45:00,85.2,49.4,29.99,ESE,104,2.0,3.0,29,0.00,,,0.00,Wunderground v.1.15,2013-05-18 19:45:00,
2013-05-18 15:52:00,84.8,50.8,29.99,ESE,110,2.0,5.0,31,0.00,,,0.00,Wunderground v.1.15,2013-05-18 19:52:00,
2013-05-18 15:58:00,84.1,51.1,29.99,East,82,3.0,3.0,32,0.00,,,0.00,Wunderground v.1.15,2013-05-18 19:58:00,
2013-05-18 16:03:00,83.7,50.7,29.99,ESE,121,2.0,5.0,32,0.00,,,0.00,Wunderground v.1.15,2013-05-18 20:03:00,
2013-05-18 16:11:00,84.4,51.3,29.98,SSE,153,2.0,4.0,32,0.00,,,0.00,Wunderground v.1.15,2013-05-18 20:11:00,
2013-05-18 16:16:00,83.9,50.0,29.98,ESE,105,4.0,8.0,31,0.00,,,0.00,Wunderground v.1.15,2013-05-18 20:16:00,
2013-05-18 16:22:00,83.5,49.7,29.98,ESE,118,3.0,4.0,31,0.00,,,0.00,Wunderground v.1.15,2013-05-18 20:22:00,
2013-05-18 16:30:00,84.4,49.6,29.98,SSE,165,2.0,4.0,30,0.00,,,0.00,Wunderground v.1.15,2013-05-18 20:30:00,
2013-05-18 16:36:00,84.8,50.8,29.98,ESE,107,3.0,7.0,31,0.00,,,0.00,Wunderground v.1.15,2013-05-18 20:36:00,
2013-05-18 16:42:00,85.2,50.3,29.98,ESE,115,2.0,2.0,30,0.00,,,0.00,Wunderground v.1.15,2013-05-18 20:42:00,
2013-05-18 16:47:00,84.6,50.6,29.98,SW,217,2.0,2.0,31,0.00,,,0.00,Wunderground v.1.15,2013-05-18 20:47:00,
2013-05-18 16:54:00,84.3,51.2,29.98,SE,124,2.0,3.0,32,0.00,,,0.00,Wunderground v.1.15,2013-05-18 20:54:00,
2013-05-18 16:59:00,84.5,51.4,29.98,ESE,105,2.0,2.0,32,0.00,,,0.00,Wunderground v.1.15,2013-05-18 20:59:00,
2013-05-18 17:04:00,84.7,48.9,29.97,ESE,108,1.0,2.0,29,0.00,,,0.00,Wunderground v.1.15,2013-05-18 21:04:00,
2013-05-18 17:10:00,85.5,51.4,29.97,ESE,108,1.0,1.0,31,0.00,,,0.00,Wunderground v.1.15,2013-05-18 21:10:00,
2013-05-18 17:15:00,84.9,50.0,29.98,ESE,103,1.0,7.0,30,0.00,,,0.00,Wunderground v.1.15,2013-05-18 21:15:00,
2013-05-18 17:21:00,83.4,48.7,29.98,ESE,115,3.0,7.0,30,0.00,,,0.00,Wunderground v.1.15,2013-05-18 21:21:00,
2013-05-18 17:27:00,83.0,50.1,29.97,West,279,2.0,7.0,32,0.00,,,0.00,Wunderground v.1.15,2013-05-18 21:27:00,
2013-05-18 17:32:00,82.6,48.9,29.97,SE,131,2.0,3.0,31,0.00,,,0.00,Wunderground v.1.15,2013-05-18 21:32:00,
2013-05-18 17:38:00,83.3,50.4,29.97,SE,143,2.0,3.0,32,0.00,,,0.00,Wunderground v.1.15,2013-05-18 21:38:00,
2013-05-18 17:43:00,84.0,51.0,29.97,SE,124,1.0,3.0,32,0.00,,,0.00,Wunderground v.1.15,2013-05-18 21:43:00,
2013-05-18 17:48:00,84.9,49.1,29.97,ESE,104,1.0,2.0,29,0.00,,,0.00,Wunderground v.1.15,2013-05-18 21:48:00,
2013-05-18 17:54:00,84.9,50.0,29.97,SE,138,2.0,3.0,30,0.00,,,0.00,Wunderground v.1.15,2013-05-18 21:54:00,
2013-05-18 17:59:00,84.7,49.8,29.97,SE,128,1.0,2.0,30,0.00,,,0.00,Wunderground v.1.15,2013-05-18 21:59:00,
2013-05-18 18:07:00,84.6,51.5,29.97,East,92,1.0,1.0,32,0.00,,,0.00,Wunderground v.1.15,2013-05-18 22:07:00,
2013-05-18 18:12:00,84.7,51.6,29.97,South,183,1.0,4.0,32,0.00,,,0.00,Wunderground v.1.15,2013-05-18 22:12:00,
2013-05-18 18:17:00,85.2,52.8,29.97,East,100,1.0,1.0,33,0.00,,,0.00,Wunderground v.1.15,2013-05-18 22:17:00,
2013-05-18 18:22:00,84.1,52.7,29.97,East,87,1.0,2.0,34,0.00,,,0.00,Wunderground v.1.15,2013-05-18 22:22:00,
2013-05-18 18:28:00,82.9,52.4,29.97,East,82,2.0,6.0,35,0.00,,,0.00,Wunderground v.1.15,2013-05-18 22:28:00,
2013-05-18 18:35:00,81.7,52.9,29.97,SE,124,2.0,6.0,37,0.00,,,0.00,Wunderground v.1.15,2013-05-18 22:35:00,
2013-05-18 18:41:00,81.4,52.6,29.97,ENE,66,2.0,2.0,37,0.00,,,0.00,Wunderground v.1.15,2013-05-18 22:41:00,
2013-05-18 18:47:00,80.8,53.5,29.97,ENE,63,2.0,2.0,39,0.00,,,0.00,Wunderground v.1.15,2013-05-18 22:47:00,
2013-05-18 18:52:00,80.3,53.8,29.97,ENE,73,2.0,4.0,40,0.00,,,0.00,Wunderground v.1.15,2013-05-18 22:52:00,
2013-05-18 18:57:00,79.8,54.0,29.97,North,351,2.0,2.0,41,0.00,,,0.00,Wunderground v.1.15,2013-05-18 22:57:00,
2013-05-18 19:03:00,79.6,54.5,29.97,ENE,68,1.0,2.0,42,0.00,,,0.00,Wunderground v.1.15,2013-05-18 23:03:00,
2013-05-18 19:09:00,79.6,53.8,29.97,ENE,71,1.0,5.0,41,0.00,,,0.00,Wunderground v.1.15,2013-05-18 23:09:00,
2013-05-18 19:14:00,79.2,53.5,29.97,South,183,2.0,7.0,41,0.00,,,0.00,Wunderground v.1.15,2013-05-18 23:14:00,
2013-05-18 19:20:00,78.9,53.9,29.97,ESE,103,1.0,4.0,42,0.00,,,0.00,Wunderground v.1.15,2013-05-18 23:20:00,
2013-05-18 19:25:00,78.6,54.2,29.98,SE,124,2.0,6.0,43,0.00,,,0.00,Wunderground v.1.15,2013-05-18 23:25:00,
2013-05-18 19:31:00,78.5,54.8,29.98,ESE,103,1.0,2.0,44,0.00,,,0.00,Wunderground v.1.15,2013-05-18 23:31:00,
2013-05-18 19:37:00,78.5,54.8,29.98,ENE,74,1.0,3.0,44,0.00,,,0.00,Wunderground v.1.15,2013-05-18 23:37:00,
2013-05-18 19:42:00,78.3,55.2,29.98,ENE,65,2.0,3.0,45,0.00,,,0.00,Wunderground v.1.15,2013-05-18 23:42:00,
2013-05-18 19:48:00,78.1,55.0,29.98,ENE,76,2.0,2.0,45,0.00,,,0.00,Wunderground v.1.15,2013-05-18 23:48:00,
2013-05-18 19:53:00,77.6,54.6,29.98,SSE,156,2.0,3.0,45,0.00,,,0.00,Wunderground v.1.15,2013-05-18 23:53:00,
2013-05-18 19:59:00,77.1,54.7,29.98,North,6,2.0,6.0,46,0.00,,,0.00,Wunderground v.1.15,2013-05-18 23:59:00,
2013-05-18 20:05:00,76.7,54.4,29.98,WNW,297,1.0,6.0,46,0.00,,,0.00,Wunderground v.1.15,2013-05-19 00:05:00,
2013-05-18 20:11:00,76.4,54.7,29.98,East,91,1.0,5.0,47,0.00,,,0.00,Wunderground v.1.15,2013-05-19 00:11:00,
2013-05-18 20:17:00,76.0,54.3,29.98,ESE,102,1.0,5.0,47,0.00,,,0.00,Wunderground v.1.15,2013-05-19 00:17:00,
2013-05-18 20:22:00,75.5,54.4,29.98,ENE,73,1.0,1.0,48,0.00,,,0.00,Wunderground v.1.15,2013-05-19 00:22:00,
2013-05-18 20:28:00,75.0,54.5,29.98,ESE,113,1.0,2.0,49,0.00,,,0.00,Wunderground v.1.15,2013-05-19 00:28:00,
2013-05-18 20:33:00,74.6,54.2,29.98,East,94,1.0,2.0,49,0.00,,,0.00,Wunderground v.1.15,2013-05-19 00:33:00,
2013-05-18 20:38:00,74.2,53.8,29.98,East,87,1.0,4.0,49,0.00,,,0.00,Wunderground v.1.15,2013-05-19 00:38:00,
2013-05-18 20:44:00,73.8,54.0,29.98,East,94,1.0,4.0,50,0.00,,,0.00,Wunderground v.1.15,2013-05-19 00:44:00,
2013-05-18 20:49:00,73.4,53.6,29.98,East,97,1.0,2.0,50,0.00,,,0.00,Wunderground v.1.15,2013-05-19 00:49:00,
2013-05-18 20:55:00,73.1,53.9,29.98,East,86,1.0,2.0,51,0.00,,,0.00,Wunderground v.1.15,2013-05-19 00:55:00,
2013-05-18 21:01:00,72.7,54.1,29.98,North,360,1.0,1.0,52,0.00,,,0.00,Wunderground v.1.15,2013-05-19 01:01:00,
2013-05-18 21:06:00,72.4,53.8,29.98,East,97,1.0,1.0,52,0.00,,,0.00,Wunderground v.1.15,2013-05-19 01:06:00,
2013-05-18 21:12:00,72.2,53.6,29.98,East,79,1.0,4.0,52,0.00,,,0.00,Wunderground v.1.15,2013-05-19 01:12:00,
2013-05-18 21:18:00,72.1,53.0,29.99,ESE,102,1.0,4.0,51,0.00,,,0.00,Wunderground v.1.15,2013-05-19 01:18:00,
2013-05-18 21:23:00,72.0,52.9,29.99,East,79,2.0,6.0,51,0.00,,,0.00,Wunderground v.1.15,2013-05-19 01:23:00,
2013-05-18 21:29:00,71.9,52.8,29.99,ENE,75,1.0,1.0,51,0.00,,,0.00,Wunderground v.1.15,2013-05-19 01:29:00,
2013-05-18 21:34:00,71.6,53.0,29.99,SE,127,1.0,3.0,52,0.00,,,0.00,Wunderground v.1.15,2013-05-19 01:34:00,
2013-05-18 21:40:00,71.2,53.2,29.99,NE,53,1.0,2.0,53,0.00,,,0.00,Wunderground v.1.15,2013-05-19 01:40:00,
2013-05-18 21:45:00,70.8,53.3,29.99,SE,141,0.0,2.0,54,0.00,,,0.00,Wunderground v.1.15,2013-05-19 01:45:00,
2013-05-18 21:50:00,70.4,53.0,29.99,ESE,118,0.0,0.0,54,0.00,,,0.00,Wunderground v.1.15,2013-05-19 01:50:00,
2013-05-18 21:58:00,69.9,53.0,30.00,SE,124,1.0,1.0,55,0.00,,,0.00,Wunderground v.1.15,2013-05-19 01:58:00,
2013-05-18 22:04:00,69.6,52.7,30.00,SE,131,1.0,2.0,55,0.00,,,0.00,Wunderground v.1.15,2013-05-19 02:04:00,
2013-05-18 22:10:00,69.4,53.0,30.00,SSE,148,1.0,3.0,56,0.00,,,0.00,Wunderground v.1.15,2013-05-19 02:10:00,
2013-05-18 22:16:00,69.1,52.7,30.00,SSW,198,1.0,3.0,56,0.00,,,0.00,Wunderground v.1.15,2013-05-19 02:16:00,
2013-05-18 22:21:00,68.7,52.8,30.00,SE,129,0.0,0.0,57,0.00,,,0.00,Wunderground v.1.15,2013-05-19 02:21:00,
2013-05-18 22:27:00,68.6,52.3,30.00,SE,132,1.0,2.0,56,0.00,,,0.00,Wunderground v.1.15,2013-05-19 02:27:00,
2013-05-18 22:33:00,68.4,52.1,30.00,ESE,118,1.0,2.0,56,0.00,,,0.00,Wunderground v.1.15,2013-05-19 02:33:00,
2013-05-18 22:39:00,68.3,52.0,30.00,SE,127,1.0,2.0,56,0.00,,,0.00,Wunderground v.1.15,2013-05-19 02:39:00,
2013-05-18 22:45:00,68.0,52.2,29.99,ESE,115,1.0,2.0,57,0.00,,,0.00,Wunderground v.1.15,2013-05-19 02:45:00,
2013-05-18 22:50:00,67.9,52.1,29.99,SE,136,1.0,1.0,57,0.00,,,0.00,Wunderground v.1.15,2013-05-19 02:50:00,
2013-05-18 22:56:00,67.6,51.8,29.99,SE,131,1.0,1.0,57,0.00,,,0.00,Wunderground v.1.15,2013-05-19 02:56:00,
2013-05-18 23:02:00,67.4,51.6,29.99,SE,132,1.0,3.0,57,0.00,,,0.00,Wunderground v.1.15,2013-05-19 03:02:00,
2013-05-18 23:07:00,67.2,51.9,29.98,ENE,78,1.0,3.0,58,0.00,,,0.00,Wunderground v.1.15,2013-05-19 03:07:00,
2013-05-18 23:13:00,67.0,51.7,29.98,East,95,1.0,3.0,58,0.00,,,0.00,Wunderground v.1.15,2013-05-19 03:13:00,
2013-05-18 23:19:00,66.8,51.5,29.98,South,169,0.0,1.0,58,0.00,,,0.00,Wunderground v.1.15,2013-05-19 03:19:00,
2013-05-18 23:24:00,66.7,51.9,29.98,SSE,153,0.0,1.0,59,0.00,,,0.00,Wunderground v.1.15,2013-05-19 03:24:00,
2013-05-18 23:30:00,66.5,52.2,29.98,SE,131,0.0,1.0,60,0.00,,,0.00,Wunderground v.1.15,2013-05-19 03:30:00,
2013-05-18 23:36:00,66.2,51.9,29.98,South,169,0.0,1.0,60,0.00,,,0.00,Wunderground v.1.15,2013-05-19 03:36:00,
2013-05-18 23:42:00,66.1,52.3,29.98,SSE,160,0.0,2.0,61,0.00,,,0.00,Wunderground v.1.15,2013-05-19 03:42:00,
2013-05-18 23:48:00,66.2,52.3,29.98,ESE,120,1.0,1.0,61,0.00,,,0.00,Wunderground v.1.15,2013-05-19 03:48:00,
2013-05-18 23:53:00,66.0,52.6,29.98,SSE,150,1.0,1.0,62,0.00,,,0.00,Wunderground v.1.15,2013-05-19 03:53:00,
2013-05-18 23:59:00,65.8,52.9,29.98,ESE,121,1.0,1.0,63,0.00,,,0.00,Wunderground v.1.15,2013-05-19 03:59:00,